This is the latest recevied weather packets stored in our database for station/object W3JBS-2. If no packets are shown the sender has not sent any weather packets the latest 10 day(s).
| Time | Temp. | Humidity | Pressure | Rain* | Wind** | Luminosity | Snow |
|---|---|---|---|---|---|---|---|
| 1777940521 | 18.33° C | 45% | 1009.3 hPa | 0 mm | - | - | - |
| 1777939621 | 19.44° C | 43% | 1009.2 hPa | 0 mm | - | - | - |
| 1777938720 | 20° C | 42% | 1009.2 hPa | 0 mm | - | - | - |
| 1777937820 | 20° C | 41% | 1009.1 hPa | 0 mm | - | - | - |
| 1777936920 | 20.56° C | 40% | 1009.1 hPa | 0 mm | - | - | - |
| 1777936021 | 21.11° C | 40% | 1009 hPa | 0 mm | - | - | - |
| 1777934220 | 21.67° C | 38% | 1009.2 hPa | 0 mm | - | - | - |
| 1777933320 | 21.11° C | 39% | 1009.3 hPa | 0 mm | - | - | - |
| 1777932420 | 21.67° C | 38% | 1009.3 hPa | 0 mm | - | - | - |
| 1777931521 | 22.22° C | 40% | 1009.4 hPa | 0 mm | - | - | - |
| 1777930621 | 21.67° C | 38% | 1009.5 hPa | 0 mm | - | - | - |
| 1777929720 | 21.67° C | 39% | 1009.5 hPa | 0 mm | - | - | - |
| 1777928820 | 22.22° C | 39% | 1009.5 hPa | 0 mm | - | - | - |
| 1777927920 | 21.67° C | 38% | 1009.5 hPa | 0 mm | - | - | - |
| 1777927020 | 21.67° C | 38% | 1009.6 hPa | 0 mm | - | - | - |
| 1777926120 | 21.67° C | 38% | 1009.7 hPa | 0 mm | - | - | - |
| 1777925220 | 21.67° C | 38% | 1009.8 hPa | 0 mm | - | - | - |
| 1777924321 | 21.67° C | 39% | 1010 hPa | 0 mm | - | - | - |
| 1777923421 | 21.67° C | 40% | 1010.1 hPa | 0 mm | - | - | - |
| 1777922521 | 21.11° C | 39% | 1010.4 hPa | 0 mm | - | - | - |
| 1777921620 | 21.11° C | 39% | 1010.5 hPa | 0 mm | - | - | - |
| 1777920720 | 21.11° C | 40% | 1010.8 hPa | 0 mm | - | - | - |
| 1777919820 | 21.11° C | 42% | 1010.9 hPa | 0 mm | - | - | - |
| 1777918920 | 20.56° C | 38% | 1011.1 hPa | 0 mm | - | - | - |
| 1777918020 | 20.56° C | 40% | 1011.3 hPa | 0 mm | - | - | - |
* Rain latest hour (hover to see other rain measurements)
** Current wind speed in m/s (hover to see current wind gust speed)